Location: 22
(39.7117°N, 89.5929°W)
Time: 05:10:41
(UTC-05:00)

Vanguard 1 Rocket - Pass Details

Date: 10 February 2023
Orbit: 652 x 4223 km, 34.3° (Epoch: 26 March)

Event Time Altitude Azimuth Distance (km) Brightness Sun altitude
Rises 17:38:33 0° 279° (W) 6,342 13.1 -2.6°
Reaches altitude 10° 17:43:06 10° 268° (W) 5,805 13.2 -3.5°
Maximum altitude 17:58:05 28° 218° (SW) 5,515 12.0 -6.3°
Drops below altitude 10° 18:17:30 10° 170° (S) 7,409 12.0 -9.9°
Sets 18:24:45 0° 160° (SSE) 8,306 12.2 -11.3°
